Regional Weather Roundup
Issued by NWS Lake Charles, LA

Home | Current Version | Previous Version | Text Only | Print | Product List | Glossary On
Versions: 1 2 3 4 5 6 7 8 9 10 11 12 13 14 15 16 17 18 19 20 21 22 23 24 25 26 27 28 29 30 31 32 33 34 35 36 37 38 39 40 41 42 43 44 45 46 47 48 49 50
000
ASUS44 KLCH 030910
RWRLCH
RWRLCH
REGIONAL WEATHER ROUNDUP
NATIONAL WEATHER SERVICE LAKE CHARLES LA
300 AM CST TUE MAR 03 2015

Note: "fair" indicates few or no clouds below 12,000 feet with no
significant weather and/or obstructions to visibility.


ACROSS SOUTHEAST TEXAS

CITY           SKY/WX    TMP DP  RH WIND       PRES   REMARKS
BEAUMONT       FOG       57  57 100 E6        30.09F VSB 3/4
BEAUMONT CITY  FOG       56  56 100 CALM      30.10F VSB 1/2
ORANGE         FOG       56  56 100 NE5       30.12F VSB 1/2
JASPER         FOG       49  49  99 CALM      30.13F VSB 3/4
$$

ACROSS CENTRAL LOUISIANA

CITY           SKY/WX    TMP DP  RH WIND       PRES   REMARKS
LEESVILLE      CLOUDY    48  47  99 E3        30.11F FOG
FULLERTON      FOG       50  47  89 CALM      30.09F VSB 1
ALEXANDRIA INT CLOUDY    45  45 100 CALM      30.11F FOG
ESLER FIELD    CLOUDY    44  44 100 CALM      30.13F FOG
DERIDDER       CLOUDY    49  48  95 CALM      30.13F FOG
OAKDALE        CLOUDY    49  48  96 CALM      30.12F
OPELOUSAS      FOG       49  49  99 CALM      30.12F VSB 1/2
$$

ACROSS SOUTHWEST AND SOUTH CENTRAL LOUISIANA

CITY           SKY/WX    TMP DP  RH WIND       PRES   REMARKS
SULPHUR        CLOUDY    55  55 100 CALM      30.12F FOG
LAKE CHARLES   CLOUDY    53  52  96 E6        30.11F FOG
CHENNAULT INT  CLOUDY    52  52 100 E3        30.12F FOG
CAMERON PHI    FOG       57  57 100 NE5       30.13F VSB 1/2
DEQUINCY       NOT AVBL
JENNINGS       FOG       51  51 100 NE3       30.11F VSB 3/4
LAFAYETTE      FOG       54  53  97 NE5       30.12F VSB 1/4
NEW IBERIA     CLOUDY    57  56  96 NE6       30.12F FOG
ABBEVILLE      NOT AVBL
PATTERSON      CLOUDY    66  64  94 CALM      30.11F VSB 1/4
SALT POINT       N/A     67  67 100 CALM      30.10F
$$

SELECTED SITES ACROSS THE REGION

CITY           SKY/WX    TMP DP  RH WIND       PRES   REMARKS
HOUSTON BUSH   FOG       56  56 100 E6        30.08F VSB 1/8
HOUSTON HOBBY  FOG       58  58 100 E5        30.08F VSB 1/2
GALVESTON      FOG       57  57 100 E7        30.08F VSB 1/2
COLLEGE STAT   FOG       45  45 100 E3        30.07F VSB 1
CONROE         FOG       52  51  97 E5        30.09F VSB 1/2
HUNTSVILLE     CLOUDY    50  50 100 CALM      30.07F FOG
LUFKIN         FOG       49  46  90 E5        30.09F VSB 3/4
SHREVEPORT     FOG       42  41  96 SE5       30.11F VSB 1
MONROE         FOG       41  41 100 CALM      30.15F VSB 3/4
NATCHEZ MS     CLOUDY    46  45  93 CALM      30.14F VSB 1/2
BATON ROUGE    FOG       56  55  97 W5        30.12F VSB 1/4
N.O. INTL ARPT FOG       66  64  93 S6        30.12F VSB 1/8
SLIDELL        FOG       65  65 100 SE7       30.12F VSB 1/2
$$

MARINE REPORTS

STATION/POSITION TIME  TEMP    WIND        PRES    VSBY  WAVE
                       AIR SEA DIR/SP/G                  HT/PER
                 (UTC) (F)     (DEG/KT/KT) (MB)    (MI)  (FT/S)
BUOY 30 S HIGH I 0900   58 58   70/  8/ 10 1018.2F         2/ 6
SEA RIM ST PARK  0900   57      60/  4/  5 1019.4F
PORT ARTHUR      0900           60/  4/  7 1019.4F
SABINE PASS N    0900   57      70/  5/  8 1019.2F
TEXAS POINT      NOT AVBL
CALCASIEU PASS   0900   57      70/  5/  7   N/A
LK CHARLES BEACH 0900   53                 1019.8F
MARSH ISLAND     NOT AVBL
FRESH WATER LOCK 0900   61      30/  4/  5 1019.5F
AMERADA PASS     0900   66     130/  2/  3 1019.7S
$$



USA.gov is the U.S. government's official web portal to all federal, state and local government web resources and services.